Location: Peebles
(55.6412°N, 3.1714°W)
Time: 06:38:00
(UTC+01:00)

Altair 2 - Pass Details

Date: 12 July 2022
Orbit: 702 x 2529 km, 96.4° (Epoch: 10 August)

Event Time Altitude Azimuth Distance (km) Brightness Sun altitude
Rises 03:15:39 0° 125° (SE) 5,479 11.8 -8.5°
Reaches altitude 10° 03:19:38 10° 117° (ESE) 4,218 11.3 -8.2°
Maximum altitude 03:28:02 33° 60° (ENE) 2,244 10.6 -7.6°
Drops below altitude 10° 03:34:16 10° 359° (N) 3,080 11.6 -7.2°
Sets 03:36:44 0° 350° (N) 3,845 11.9 -7.0°
